| time (UTC) | temp F | wind direction | speed knots | gust knots | rain 1hr in | rain 24hr in | rain mn in | humidity % | barometer mb |
| 20260509220025 | 77 | 283 | 0.0 | 2.6 | 0.00 | 0.00 | 0.00 | 35 | 1017.2 |
| 20260509214526 | 77 | 56 | 0.0 | 1.7 | 0.00 | 0.00 | 0.00 | 34 | 1017.4 |
| 20260509213024 | 76 | 301 | 0.0 | 1.7 | 0.00 | 0.00 | 0.00 | 36 | 1017.6 |
| 20260509211522 | 76 | 285 | 0.0 | 1.7 | 0.00 | 0.00 | 0.00 | 38 | 1017.8 |
| 20260509210022 | 75 | 32 | 0.9 | 4.3 | 0.00 | 0.00 | 0.00 | 37 | 1017.9 |
| 20260509204515 | 74 | 69 | 0.0 | 2.6 | 0.00 | 0.00 | 0.00 | 39 | 1018.0 |
| 20260509203030 | 73 | 193 | 0.0 | 1.7 | 0.00 | 0.00 | 0.00 | 42 | 1018.1 |
| 20260509201528 | 73 | 207 | 0.0 | 2.6 | 0.00 | 0.00 | 0.00 | 42 | 1018.3 |
| 20260509200026 | 72 | 301 | 0.0 | 2.6 | 0.00 | 0.00 | 0.00 | 43 | 1018.4 |
| 20260509194525 | 72 | 80 | 0.0 | 1.7 | 0.00 | 0.00 | 0.00 | 39 | 1018.6 |
| 20260509193025 | 70 | 317 | 0.0 | 3.5 | 0.00 | 0.00 | 0.00 | 43 | 1018.8 |
| 20260509191521 | 69 | 18 | 0.0 | 1.7 | 0.00 | 0.00 | 0.00 | 46 | 1018.9 |
| 20260509190020 | 69 | 31 | 0.0 | 3.5 | 0.00 | 0.00 | 0.00 | 47 | 1019.1 |
| 20260509184502 | 68 | 52 | 0.0 | 3.5 | 0.00 | 0.00 | 0.00 | 53 | 1019.4 |
| 20260509183012 | 68 | 57 | 0.0 | 3.5 | 0.00 | 0.00 | 0.00 | 54 | 1019.4 |
| 20260509181511 | 67 | 54 | 0.0 | 0.9 | 0.00 | 0.00 | 0.00 | 56 | 1019.6 |
| 20260509180007 | 66 | 352 | 0.0 | 0.9 | 0.00 | 0.00 | 0.00 | 57 | 1019.7 |
| 20260509174503 | 65 | 37 | 0.0 | 0.9 | 0.00 | 0.00 | 0.00 | 59 | 1019.7 |
| 20260509173004 | 63 | 262 | 0.0 | 0.9 | 0.00 | 0.00 | 0.00 | 62 | 1019.9 |
| 20260509171503 | 61 | 64 | 0.0 | 3.5 | 0.00 | 0.00 | 0.00 | 64 | 1020.0 |
| 20260509170004 | 60 | 311 | 0.0 | 0.9 | 0.00 | 0.00 | 0.00 | 67 | 1020.3 |
| 20260509164515 | 59 | 55 | 0.0 | 0.9 | 0.00 | 0.00 | 0.00 | 69 | 1020.5 |
| 20260509163015 | 57 | 58 | 0.0 | 0.9 | 0.00 | 0.00 | 0.00 | 70 | 1020.8 |
| 20260509161512 | 56 | 342 | 0.0 | 4.3 | 0.00 | 0.00 | 0.00 | 71 | 1021.0 |
| 20260509160010 | 56 | 338 | 0.0 | 1.7 | 0.00 | 0.00 | 0.00 | 72 | 1021.1 |
| 20260509154506 | 55 | 80 | 0.0 | 0.9 | 0.00 | 0.00 | 0.00 | 73 | 1021.1 |
| 20260509153005 | 54 | 276 | 0.0 | 0.0 | 0.00 | 0.00 | 0.00 | 75 | 1021.3 |
| 20260509151503 | 53 | 304 | 0.0 | 0.0 | 0.00 | 0.00 | 0.00 | 76 | 1021.6 |
| 20260509150026 | 51 | 124 | 0.0 | 0.0 | 0.00 | 0.00 | 0.00 | 79 | 1021.6 |
| 20260509144521 | 50 | 98 | 0.0 | 0.0 | 0.00 | 0.00 | 0.00 | 80 | 1021.7 |
| 20260509143020 | 49 | 102 | 0.0 | 0.0 | 0.00 | 0.00 | 0.00 | 81 | 1021.5 |
| 20260509141531 | 47 | 25 | 0.0 | 0.0 | 0.00 | 0.00 | 0.00 | 81 | 1021.6 |
| 20260509140013 | 46 | 269 | 0.0 | 0.0 | 0.00 | 0.00 | 0.00 | 80 | 1021.6 |
| 20260509134512 | 45 | 269 | 0.0 | 0.0 | 0.00 | 0.00 | 0.00 | 79 | 1021.5 |
| 20260509133005 | 44 | 269 | 0.0 | 0.0 | 0.00 | 0.00 | 0.00 | 79 | 1021.5 |
| 20260509131531 | 44 | 269 | 0.0 | 0.0 | 0.00 | 0.00 | 0.00 | 78 | 1021.4 |
| 20260509130026 | 44 | 269 | 0.0 | 0.0 | 0.00 | 0.00 | 0.00 | 77 | 1021.5 |
| 20260509124528 | 44 | 269 | 0.0 | 0.0 | 0.00 | 0.00 | 0.00 | 77 | 1021.6 |
| 20260509123021 | 45 | 269 | 0.0 | 0.0 | 0.00 | 0.00 | 0.00 | 77 | 1021.4 |
| 20260509121518 | 46 | 269 | 0.0 | 0.0 | 0.00 | 0.00 | 0.00 | 77 | 1021.6 |
| 20260509120013 | 46 | 269 | 0.0 | 0.0 | 0.00 | 0.00 | 0.00 | 77 | 1021.8 |
| 20260509114530 | 47 | 269 | 0.0 | 0.0 | 0.00 | 0.00 | 0.00 | 77 | 1021.8 |
| 20260509113026 | 47 | 269 | 0.0 | 0.0 | 0.00 | 0.00 | 0.00 | 76 | 1021.6 |
| 20260509111540 | 47 | 269 | 0.0 | 0.0 | 0.00 | 0.00 | 0.00 | 75 | 1021.6 |
| 20260509110025 | 47 | 269 | 0.0 | 0.0 | 0.00 | 0.00 | 0.00 | 74 | 1021.7 |
| 20260509104527 | 47 | 269 | 0.0 | 0.0 | 0.00 | 0.00 | 0.00 | 74 | 1022.0 |
| 20260509103018 | 47 | 269 | 0.0 | 0.0 | 0.00 | 0.00 | 0.00 | 72 | 1022.1 |
| 20260509101527 | 47 | 269 | 0.0 | 0.0 | 0.00 | 0.00 | 0.00 | 71 | 1022.0 |
| 20260509100032 | 48 | 269 | 0.0 | 0.0 | 0.00 | 0.00 | 0.00 | 70 | 1022.0 |
| 20260509094511 | 48 | 269 | 0.0 | 0.0 | 0.00 | 0.00 | 0.00 | 70 | 1022.2 |
| 20260509093006 | 48 | 269 | 0.0 | 0.0 | 0.00 | 0.00 | 0.00 | 70 | 1022.1 |
| 20260509091506 | 49 | 269 | 0.0 | 0.0 | 0.00 | 0.00 | 0.00 | 69 | 1022.2 |
| 20260509090004 | 49 | 269 | 0.0 | 0.0 | 0.00 | 0.00 | 0.00 | 68 | 1022.3 |
| 20260509084512 | 50 | 269 | 0.0 | 0.0 | 0.00 | 0.00 | 0.00 | 68 | 1022.4 |
| 20260509083015 | 50 | 269 | 0.0 | 0.0 | 0.00 | 0.00 | 0.00 | 68 | 1022.5 |
| 20260509081516 | 51 | 269 | 0.0 | 0.0 | 0.00 | 0.00 | 0.00 | 67 | 1022.6 |
| 20260509080016 | 51 | 269 | 0.0 | 0.0 | 0.00 | 0.00 | 0.00 | 67 | 1022.6 |
| 20260509074512 | 52 | 269 | 0.0 | 0.0 | 0.00 | 0.00 | 0.00 | 68 | 1022.7 |
| 20260509073009 | 52 | 269 | 0.0 | 0.0 | 0.00 | 0.00 | 0.00 | 67 | 1022.7 |
| 20260509071507 | 53 | 269 | 0.0 | 0.0 | 0.00 | 0.00 | 0.00 | 66 | 1022.7 |
| 20260509070020 | 53 | 269 | 0.0 | 0.0 | 0.00 | 0.00 | 0.00 | 66 | 1022.6 |
| 20260509064528 | 53 | 265 | 0.0 | 0.0 | 0.00 | 0.00 | 0.00 | 66 | 1022.6 |
| 20260509063018 | 54 | 265 | 0.0 | 0.0 | 0.00 | 0.00 | 0.00 | 65 | 1022.6 |
| 20260509061535 | 54 | 265 | 0.0 | 0.0 | 0.00 | 0.00 | 0.00 | 64 | 1022.5 |
| 20260509060016 | 55 | 265 | 0.0 | 0.0 | 0.00 | 0.00 | 0.00 | 63 | 1022.5 |
| 20260509054511 | 56 | 313 | 0.0 | 0.0 | 0.00 | 0.00 | 0.00 | 63 | 1022.5 |
| 20260509053023 | 56 | 302 | 0.0 | 0.9 | 0.00 | 0.00 | 0.00 | 62 | 1022.5 |
| 20260509051524 | 57 | 302 | 0.0 | 0.9 | 0.00 | 0.00 | 0.00 | 61 | 1022.4 |
| 20260509050022 | 58 | 294 | 0.0 | 0.9 | 0.00 | 0.00 | 0.00 | 60 | 1022.1 |
| 20260509044522 | 58 | 297 | 0.0 | 1.7 | 0.00 | 0.00 | 0.00 | 59 | 1022.1 |
| 20260509043022 | 59 | 309 | 0.0 | 0.9 | 0.00 | 0.00 | 0.00 | 58 | 1022.0 |
| 20260509041523 | 60 | 310 | 0.0 | 1.7 | 0.00 | 0.00 | 0.00 | 57 | 1021.9 |
| 20260509040017 | 60 | 40 | 0.0 | 0.9 | 0.00 | 0.00 | 0.00 | 56 | 1021.8 |
| 20260509034534 | 61 | 217 | 0.0 | 0.0 | 0.00 | 0.00 | 0.00 | 55 | 1021.7 |
| 20260509033028 | 62 | 174 | 0.0 | 0.0 | 0.00 | 0.00 | 0.00 | 54 | 1021.6 |
| 20260509031528 | 63 | 224 | 0.0 | 2.6 | 0.00 | 0.00 | 0.00 | 53 | 1021.6 |
| 20260509030028 | 64 | 206 | 0.0 | 2.6 | 0.00 | 0.00 | 0.00 | 51 | 1021.4 |
| 20260509024526 | 66 | 117 | 0.0 | 1.7 | 0.00 | 0.00 | 0.00 | 48 | 1021.3 |
| 20260509023024 | 67 | 187 | 0.0 | 0.9 | 0.00 | 0.00 | 0.00 | 45 | 1021.3 |
| 20260509021522 | 68 | 243 | 0.0 | 0.0 | 0.00 | 0.00 | 0.00 | 44 | 1021.2 |
| 20260509020002 | 68 | 198 | 0.0 | 0.9 | 0.00 | 0.00 | 0.00 | 44 | 1021.2 |
| 20260509014513 | 68 | 274 | 0.0 | 4.3 | 0.00 | 0.00 | 0.00 | 42 | 1021.2 |
| 20260509013010 | 69 | 219 | 0.0 | 0.9 | 0.00 | 0.00 | 0.00 | 41 | 1021.3 |
| 20260509011508 | 71 | 299 | 0.0 | 0.9 | 0.00 | 0.00 | 0.00 | 38 | 1021.4 |
| 20260509010003 | 70 | 300 | 0.0 | 3.5 | 0.00 | 0.00 | 0.00 | 39 | 1021.5 |
| 20260509004508 | 71 | 11 | 0.9 | 3.5 | 0.00 | 0.00 | 0.00 | 38 | 1021.5 |
| 20260509003006 | 72 | 307 | 0.0 | 1.7 | 0.00 | 0.00 | 0.00 | 38 | 1021.5 |
| 20260509001503 | 71 | 195 | 0.0 | 1.7 | 0.00 | 0.00 | 0.00 | 39 | 1021.6 |
| 20260509000018 | 70 | 305 | 0.0 | 2.6 | 0.00 | 0.00 | 0.00 | 39 | 1021.7 |
| 20260508234513 | 70 | 203 | 0.0 | 2.6 | 0.00 | 0.00 | 0.00 | 39 | 1021.8 |
| 20260508233011 | 69 | 316 | 0.0 | 4.3 | 0.00 | 0.00 | 0.00 | 39 | 1021.9 |
| 20260508231513 | 69 | 135 | 0.0 | 4.3 | 0.00 | 0.00 | 0.00 | 40 | 1021.9 |
| 20260508230005 | 70 | 7 | 0.0 | 1.7 | 0.00 | 0.00 | 0.00 | 38 | 1021.9 |
| 20260508224505 | 68 | 324 | 0.0 | 3.5 | 0.00 | 0.00 | 0.00 | 40 | 1021.9 |
| 20260508223010 | 68 | 129 | 0.0 | 1.7 | 0.00 | 0.00 | 0.00 | 39 | 1021.9 |
| 20260508221522 | 70 | 103 | 0.0 | 1.7 | 0.00 | 0.00 | 0.00 | 37 | 1022.0 |